Flag for Pakistan Weather past 2 weeks in Rawalpindi, Pakistan

Now
81 °F

Fog.


Feels Like: 88 °F
Forecast: 80 / 93 °F
Wind: 18 mph from Southeast

Location: Islamabad Airport

Current Time: Jul 24, 2014 at 2:00:54 PM

Latest Report: Jul 24, 2014 at 1:00 PM


Visibility: 2 mi

Pressure: 29.65 "Hg

Humidity: 94%

Dew point: 79 °F

Location of RawalpindiLocation

Historic Weather in Rawalpindi — Graph

°F

Rawalpindi temperature yesterday

Maximum temperature yesterday: 95 °F (at 1:00 PM)
Minimum temperature yesterday: 84 °F (at 11:00 PM)
Average temperature yesterday: 90 °F

Past Weeks' High & Low Weather Summary

 TemperatureHumidityPressure
High104 °F (Jul 9, 1:00 PM)100% (Jul 19, 7:00 AM)29.65 "Hg (Jul 19, 7:00 AM)
Low68 °F (Jul 19, 6:00 AM)29% (Jul 9, 1:00 PM)29.42 "Hg (Jul 15, 5:00 PM)
Average89 °F62%29.53 "Hg
* Reported Jul 9 1:00 PM — Jul 24 1:00 PM, Rawalpindi, Weather by CustomWeather, © 2014

Note: Actual official high and low records may vary slightly from our data, if they occured in-between our weather recording intervals... More about our weather records

Advertising

Rawalpindi weather history for previous 24 hours

 ConditionsComfort  
Time TempWeatherWind HumidityBarometerVisibility
1:00 PM
Jul 24
81 °FFog.18 mph94%29.65 "Hg2 mi
12:00 PM79 °FFog.18 mph94%29.65 "Hg2 mi
11:00 AM77 °FFog.18 mph100%29.65 "Hg2 mi
10:00 AM79 °FDrizzle. Broken clouds.23 mph94%29.65 "Hg2 mi
9:00 AM79 °FRain. Broken clouds.16 mph94%29.65 "Hg1 mi
8:00 AM79 °FThunderstorms. Broken clouds.12 mph94%29.62 "Hg2 mi
7:00 AM79 °FThunderstorms. Broken clouds.7 mph94%29.59 "Hg2 mi
4:00 AM79 °FThunderstorms. Partly cloudy.16 mph94%29.53 "Hg1 mi
3:00 AM82 °FThunderstorms. Partly cloudy.12 mph84%29.56 "Hg2 mi
2:00 AM84 °FThunderstorms. Passing clouds.16 mph79%29.56 "Hg2 mi
1:00 AM84 °FThundershowers. Passing clouds.18 mph79%29.56 "Hg2 mi
12:00 AM84 °FPassing clouds.16 mph79%29.59 "Hg2 mi
11:00 PM
Jul 23
84 °FPassing clouds.16 mph79%29.59 "Hg2 mi
10:00 PM86 °FPassing clouds.18 mph75%29.59 "Hg2 mi
9:00 PM88 °FPassing clouds.18 mph75%29.56 "Hg2 mi
8:00 PM88 °FPassing clouds.21 mph75%29.53 "Hg2 mi
7:00 PM90 °FScattered clouds.21 mph75%29.53 "Hg2 mi
6:00 PM90 °FScattered clouds.23 mph67%29.50 "Hg2 mi
5:00 PM93 °FScattered clouds.18 mph63%29.50 "Hg2 mi
4:00 PM95 °FScattered clouds.18 mph63%29.50 "Hg2 mi
3:00 PM95 °FScattered clouds.16 mph63%29.50 "Hg2 mi
2:00 PM95 °FScattered clouds.14 mph63%29.53 "Hg2 mi
Weather by CustomWeather, © 2014

See weather overviewHow to use our weather pages